This is the latest recevied weather packets stored in our database for station/object NE1CU. If no packets are shown the sender has not sent any weather packets the latest 10 day(s).
| Time | Temp. | Humidity | Pressure | Rain* | Wind** | Luminosity | Snow |
|---|---|---|---|---|---|---|---|
| 1777571622 | 11.67° C | 86% | 1006.4 hPa | 0 mm | - | 100 W/m² | - |
| 1777571320 | 11.67° C | 85% | 1006.3 hPa | 0 mm | - | 121 W/m² | - |
| 1777571015 | 12.22° C | 84% | 1006.5 hPa | 0 mm | - | 101 W/m² | - |
| 1777570712 | 12.78° C | 82% | 1006.3 hPa | 0 mm | - | 137 W/m² | - |
| 1777570408 | 13.33° C | 80% | 1006.4 hPa | 0 mm | - | 109 W/m² | - |
| 1777570104 | 13.33° C | 79% | 1006.3 hPa | 0 mm | - | 180 W/m² | - |
| 1777569800 | 12.78° C | 81% | 1006.2 hPa | 0 mm | - | 496 W/m² | - |
| 1777569496 | 12.78° C | 83% | 1006.4 hPa | 0 mm | - | 348 W/m² | - |
| 1777569193 | 12.78° C | 85% | 1006.4 hPa | 0 mm | - | 256 W/m² | - |
| 1777568889 | 12.22° C | 85% | 1006.4 hPa | 0 mm | - | 321 W/m² | - |
| 1777568586 | 11.67° C | 87% | 1006.2 hPa | 0 mm | - | 346 W/m² | - |
| 1777568284 | 11.67° C | 87% | 1006.5 hPa | 0 mm | - | 250 W/m² | - |
| 1777567980 | 11.11° C | 87% | 1006.5 hPa | 0 mm | - | 221 W/m² | - |
| 1777567676 | 11.11° C | 88% | 1006.5 hPa | 0 mm | - | 165 W/m² | - |
| 1777567373 | 11.11° C | 88% | 1006.5 hPa | 0 mm | - | 159 W/m² | - |
| 1777567071 | 11.11° C | 89% | 1006.5 hPa | 0 mm | - | 193 W/m² | - |
| 1777566769 | 11.11° C | 88% | 1006.7 hPa | 0 mm | - | 203 W/m² | - |
| 1777566466 | 11.11° C | 88% | 1006.7 hPa | 0 mm | - | 134 W/m² | - |
| 1777566164 | 11.11° C | 89% | 1007 hPa | 0 mm | - | 165 W/m² | - |
| 1777565860 | 11.11° C | 89% | 1006.9 hPa | 0 mm | - | 173 W/m² | - |
| 1777565556 | 10.56° C | 90% | 1007.1 hPa | 0 mm | - | 186 W/m² | - |
| 1777565253 | 10.56° C | 89% | 1007.5 hPa | 0 mm | - | 140 W/m² | - |
| 1777564949 | 11.11° C | 89% | 1007.1 hPa | 0 mm | - | 153 W/m² | - |
| 1777564644 | 11.11° C | 91% | 1007.3 hPa | 0 mm | - | 237 W/m² | - |
| 1777564340 | 10.56° C | 91% | 1007.6 hPa | 0 mm | - | 378 W/m² | - |
* Rain latest hour (hover to see other rain measurements)
** Current wind speed in m/s (hover to see current wind gust speed)